Location: Sluknov
(51.0170°N, 14.4670°E)
Time: 09:57:42
(UTC+01:00)

ISS - Pass Details

Date: 23 February 2026
Orbit: 416 x 426 km, 51.6° (Epoch: 9 March)

Event Time Altitude Azimuth Distance (km) Brightness Sun altitude
Exits shadow 04:16:19 27° 81° (E) 836 -1.6 -26.2°
Drops below altitude 10° 04:17:59 10° 79° (E) 1,495 0.1 -25.9°
Sets 04:20:05 0° 78° (ENE) 2,359 1.4 -25.6°
